User: anonymous   Login
Location: Champseau
(45.8333°N, 1.7667°E)
Time: 02:09:32
(UTC+00:00)
Language:

QB50P2 - Orbit

View from above orbital plane
View from above orbital plane
View from above satellite
View from above satellite

Ground track
Ground track

The orbit data is extracted from the following two-line orbital elements,

1 40032U 14033Y   21332.55138563  .00000791  00000-0  89733-4 0  9998
2 40032  97.9248 259.8220 0011892   3.3830 356.7465 14.89157369403710
Epoch (UTC): 28 November 2021 13:13:59
Eccentricity: 0.0011892
inclination: 97.9248°
perigee height: 592 km
apogee height: 609 km
right ascension of ascending node: 259.8220°
argument of perigee: 3.3830°
revolutions per day: 14.89157369
mean anomaly at epoch: 356.7465°
orbit number at epoch: 40371

The dashed part of the orbit path shows where the satellite is in the earth's shadow,  

DLR